Location: Unspecified
(44.0704°N, 88.6889°W)
Time: 17:18:50
(UTC+02:00)

Cosmos 2058 - Visible Passes

Search period start: 20 August 2018 00:00
Search period end: 30 August 2018 00:00
Orbit: 564 x 583 km, 82.5° (Epoch: 19 August)

Date Brightness Start Highest point End Pass type
(mag) Time Alt. Az. Time Alt. Az. Time Alt. Az.
20 Aug 4.9 09:33:51 10° NNE 09:37:16 23° ENE 09:37:47 23° E visible
20 Aug 3.9 11:10:31 10° NNW 11:13:57 29° W 11:13:57 29° W visible
21 Aug 4.6 09:36:45 10° NNE 09:40:21 30° ENE 09:40:21 30° ENE visible
21 Aug 4.4 11:13:55 10° NW 11:16:32 22° WNW 11:16:32 22° WNW visible
22 Aug 4.4 09:39:43 10° N 09:42:59 36° NE 09:42:59 36° NE visible
22 Aug 4.8 11:17:27 10° NW 11:19:09 16° WNW 11:19:09 16° WNW visible
23 Aug 4.3 09:42:44 10° N 09:45:38 37° NNE 09:45:38 37° NNE visible
23 Aug 5.2 11:21:11 10° NW 11:21:49 12° WNW 11:21:49 12° WNW visible
24 Aug 4.4 09:45:49 10° N 09:48:20 34° N 09:48:20 34° N visible
25 Aug 4.6 09:48:56 10° N 09:51:04 29° N 09:51:04 29° N visible
26 Aug 6.0 08:17:27 10° NE 08:17:38 10° NE 08:17:38 10° NE visible
26 Aug 4.9 09:52:06 10° NNW 09:53:49 23° NNW 09:53:49 23° NNW visible
27 Aug 5.9 08:19:44 10° NNE 08:20:25 12° NE 08:20:25 12° NE visible
27 Aug 5.2 09:55:19 10° NNW 09:56:36 19° NNW 09:56:36 19° NNW visible
28 Aug 5.9 08:22:24 10° NNE 08:23:13 13° NE 08:23:13 13° NE visible
28 Aug 5.4 09:58:35 10° NNW 09:59:25 15° NNW 09:59:25 15° NNW visible
29 Aug 5.9 08:25:12 10° NNE 08:26:02 14° NNE 08:26:02 14° NNE visible
29 Aug 5.6 10:01:55 10° NNW 10:02:14 12° NNW 10:02:14 12° NNW visible
